Weather History for Longue-Pointe-de-Mingan, QC

Change the Weather History Date:

Sunday, March 25, 2012

  Actual Average (CYGV) Record (CYGV)
Temperature  
Mean Temperature 15 °F -  
Max Temperature 25 °F 29 °F 44 °F (2013)
Min Temperature 5 °F 13 °F -11 °F (2008)
Degree Days  
Heating Degree Days 50    
Moisture  
Dew Point 7 °F    
Average Humidity 60    
Maximum Humidity 84    
Minimum Humidity 31    
Precipitation  
Precipitation 0.00 in - - ()
Sea Level Pressure  
Sea Level Pressure 29.89 in    
Wind  
Wind Speed 4 mph ()    
Max Wind Speed 8 mph    
Max Gust Speed -    
Averages and records for this station are not official NWS values.
T = Trace of Precipitation, MM = Missing Value Source: Averaged Metar Reports

Daily Weather History Graph

Daily Weather History Graph

Search for Another Location

Airport:

Trip Planner

Search our weather history database for the weather conditions in past years. The results will help you decide how hot, cold, wet, or windy it might be!

Date:

Astronomy

Mar. 25, 2012 Rise Set
Actual Time 6:07 AM EDT 6:38 PM EDT
Civil Twilight 5:35 AM EDT 7:11 PM EDT
Nautical Twilight 4:56 AM EDT 7:50 PM EDT
Astronomical Twilight 4:15 AM EDT 8:31 PM EDT
Moon 6:55 AM EDT (3/25) 10:15 PM EDT (3/25)
Length of Visible Light 13h 36m
Length of Day
12h 31m
Waxing Crescent, 8% of the Moon is Illuminated
Mar 25
Waxing Crescent
Mar 30
First Quarter
Apr 6
Full
Apr 13
Last Quarter
Apr 21
New

Hourly Weather History & Observations

Time (EDT) Temp. Windchill Dew Point Humidity Pressure Visibility Wind Dir Wind Speed Gust Speed Precip Events Conditions
12:00 AM 17.2 °F 10.2 °F 0.9 °F 49% 29.95 in - NW 4.6 mph - N/A   Unknown
1:00 AM 16.3 °F 9.2 °F 0.1 °F 49% 29.97 in - NNW 4.6 mph - N/A   Unknown
2:00 AM 13 °F - 1 °F 44% 29.98 in - WNW 4.6 mph - -  
2:00 AM 13.1 °F 5.4 °F 1.0 °F 59% 29.98 in - WNW 4.6 mph - N/A   Unknown
3:00 AM 12.7 °F 5.0 °F 0.1 °F 57% 29.98 in - NW 4.6 mph - N/A   Unknown
4:00 AM 10.2 °F 3.8 °F 0.3 °F 64% 29.98 in - WSW 3.5 mph - N/A   Unknown
5:00 AM 7.9 °F 1.2 °F -0.4 °F 69% 29.98 in - WSW 3.5 mph - N/A   Unknown
6:00 AM 5.4 °F -1.7 °F -0.4 °F 77% 29.98 in - West 3.5 mph - N/A   Unknown
7:00 AM 9.9 °F 3.4 °F 0.1 °F 65% 29.99 in - WSW 3.5 mph - N/A   Unknown
8:00 AM 16 °F - -1 °F 31% 29.99 in - WNW 4.6 mph - -  
8:00 AM 15.6 °F 8.3 °F -1.1 °F 48% 29.99 in - WNW 4.6 mph - N/A   Unknown
9:00 AM 19.0 °F - -2.4 °F 39% 29.99 in - West 2.3 mph - N/A   Unknown
10:00 AM 20.1 °F 12.3 °F 4.1 °F 50% 29.96 in - SSW 5.8 mph - N/A   Unknown
11:00 AM 22.5 °F 14.1 °F 7.5 °F 53% 29.93 in - SW 6.9 mph - N/A   Unknown
12:00 PM 23.0 °F 14.7 °F 8.2 °F 53% 29.90 in - WSW 6.9 mph - N/A   Unknown
1:00 PM 25.0 °F 17.1 °F 10.2 °F 54% 29.89 in - WSW 6.9 mph - N/A   Unknown
2:00 PM 25 °F - 10 °F 37% 29.86 in - WSW 8.1 mph - -  
2:00 PM 25.2 °F 16.5 °F 9.5 °F 52% 29.86 in - WSW 8.1 mph - N/A   Unknown
3:00 PM 25.2 °F 19.5 °F 11.7 °F 57% 29.83 in - WSW 4.6 mph - N/A   Unknown
4:00 PM 24.3 °F 19.9 °F 10.4 °F 56% 29.81 in - SW 3.5 mph - N/A   Unknown
5:00 PM 24.4 °F 20.1 °F 11.3 °F 57% 29.81 in - SW 3.5 mph - N/A   Unknown
6:00 PM 23.2 °F - 16.3 °F 75% 29.80 in - WNW 2.3 mph - N/A   Unknown
7:00 PM 22.3 °F - 17.1 °F 80% 29.79 in - SSW 1.2 mph - N/A   Unknown
8:00 PM 22 °F - 17 °F 74% 29.78 in - South 2.3 mph - -  
8:00 PM 22.5 °F - 17.2 °F 80% 29.78 in - South 2.3 mph - N/A   Unknown
9:00 PM 22.1 °F - 17.1 °F 81% 29.75 in - ENE 2.3 mph - N/A   Unknown
10:00 PM 21.9 °F 17.2 °F 17.4 °F 83% 29.72 in - ENE 3.5 mph - N/A   Unknown
11:00 PM 22.1 °F 17.4 °F 18.0 °F 84% 29.70 in - NE 3.5 mph - N/A   Unknown